This is the latest recevied weather packets stored in our database for station/object I1SXT-13. If no packets are shown the sender has not sent any weather packets the latest 10 day(s).
| Time | Temp. | Humidity | Pressure | Rain* | Wind** | Luminosity | Snow |
|---|---|---|---|---|---|---|---|
| 1778028564 | 14.44° C | 93% | 1010.4 hPa | 0.25 mm | - | - | - |
| 1778028267 | 14.44° C | 93% | 1011.1 hPa | 0.25 mm | - | - | - |
| 1778027969 | 14.44° C | 93% | 1011.4 hPa | 0.25 mm | - | - | - |
| 1778027665 | 14.44° C | 93% | 1011.6 hPa | 0.25 mm | - | - | - |
| 1778027368 | 14.44° C | 93% | 1011.2 hPa | 0.25 mm | - | - | - |
| 1778027064 | 14.44° C | 94% | 1010.5 hPa | 0.25 mm | - | - | - |
| 1778026767 | 14.44° C | 93% | 1010.9 hPa | 0.25 mm | - | - | - |
| 1778026470 | 14.44° C | 93% | 1011.1 hPa | 0.25 mm | - | - | - |
| 1778026166 | 14.44° C | 92% | 1011.5 hPa | 0 mm | - | - | - |
| 1778025869 | 13.89° C | 92% | 1011.2 hPa | 0 mm | - | - | - |
| 1778025565 | 14.44° C | 91% | 1011.6 hPa | 0 mm | - | - | - |
| 1778025267 | 14.44° C | 90% | 1010.6 hPa | 0 mm | - | - | - |
| 1778024963 | 15° C | 85% | 1011.6 hPa | 0 mm | - | - | - |
| 1778024666 | 15° C | 84% | 1011.4 hPa | 0 mm | - | - | - |
| 1778024065 | 15° C | 82% | 1011.3 hPa | 0 mm | - | - | - |
| 1778023768 | 15.56° C | 81% | 1011.5 hPa | 0 mm | - | - | - |
| 1778023464 | 15.56° C | 81% | 1011.9 hPa | 0 mm | - | - | - |
| 1778022870 | 15.56° C | 82% | 1011.5 hPa | 0 mm | - | - | - |
| 1778022268 | 15° C | 83% | 1011.7 hPa | 0 mm | - | - | - |
| 1778021965 | 15° C | 83% | 1012 hPa | 0 mm | - | - | - |
| 1778021667 | 15° C | 85% | 1012 hPa | 0 mm | - | - | - |
| 1778021370 | 15° C | 85% | 1011.8 hPa | 0 mm | - | - | - |
| 1778021066 | 15° C | 86% | 1011.3 hPa | 0 mm | - | - | - |
| 1778020769 | 15° C | 85% | 1012.4 hPa | 0 mm | - | - | - |
| 1778019864 | 15° C | 86% | 1012.2 hPa | 0 mm | - | - | - |
* Rain since midnight (hover to see other rain measurements)
** Current wind speed in m/s (hover to see current wind gust speed)